This demonstration page uses our WeatherBlox Daily Observations layout. Learn more.

Left ArrowRight Arrow

Hourly Observations for May 24, 2015

Temp ( °F °C ) Dew Point ( °F °C ) Humidity (%) Winds ( mph kmh ) Pressure ( in mb ) Visibility ( mi km ) Precip ( " mm )
12:53 am 00:53 Clear 63 17.2 55 12.8 76 76 SE 7 11 29.73 1007 10 16 0.00 0.00
1:53 am 01:53 Mostly Clear 63 17.2 56 13.3 78 78 SE 6 9 29.72 1007 10 16 0.00 0.00
2:53 am 02:53 Partly Cloudy 63 17.2 56 13.3 78 78 S 8 13 29.75 1008 10 16 0.00 0.03
3:53 am 03:53 Mostly Clear 64 17.8 55 12.8 73 73 SSW 9 15 29.77 1008 10 16 0.00 0.00
4:53 am 04:53 Clear 60 15.6 53 11.7 78 78 Calm 29.78 1008 10 16 0.00 0.00
5:53 am 05:53 Clear 61 16.1 52 11.1 72 72 WSW 13 20 29.77 1008 10 16 0.00 0.00
6:53 am 06:53 Sunny 59 15 53 11.7 81 81 WSW 12 19 29.77 1008 10 16 0.00 0.00
7:53 am 07:53 undefined 61 16.1 55 12.8 81 81 WSW 9 15 29.80 1009 10 16 0.00 0.00
8:53 am 08:53 undefined 66 18.9 52 11.1 61 61 S 5 7 29.81 1009 10 16 0.00 0.00
9:53 am 09:53 Sunny 70 21.1 44 6.7 39 39 W 12 19 29.80 1009 10 16 0.00 0.00
10:53 am 10:53 Sunny 74 23.3 43 6.1 33 33 W 13 20 29.79 1009 10 16 0.00 0.00
11:53 am 11:53 Sunny 80 26.7 36 2.2 20 20 W 15 24 29.77 1008 10 16 0.00 0.00
12:53 pm 12:53 Sunny 83 28.3 32 0 16 16 W 18 30 29.76 1008 10 16 0.00 0.00
1:53 pm 13:53 Sunny 83 28.3 29 -1.7 14 14 WSW 17 28 29.74 1007 10 16 0.00 0.00
2:53 pm 14:53 Sunny 85 29.4 28 -2.2 13 13 W 9 15 29.72 1007 10 16 0.00 0.00
3:53 pm 15:53 Sunny 86 30 25 -3.9 11 11 W 12 19 29.69 1006 10 16 0.00 0.00
4:53 pm 16:53 Sunny 86 30 23 -5 10 10 WSW 18 30 29.68 1005 10 16 0.00 0.00
5:53 pm 17:53 Sunny 87 30.6 22 -5.6 9 9 WSW 8 13 29.67 1005 10 16 0.00 0.00
6:53 pm 18:53 Sunny 86 30 21 -6.1 9 9 SSW 9 15 29.66 1004 10 16 0.00 0.00
7:53 pm 19:53 Sunny 84 28.9 24 -4.4 11 11 SSW 8 13 29.66 1004 10 16 0.00 0.00
8:53 pm 20:53 Clear 74 23.3 37 2.8 26 26 SSE 8 13 29.68 1005 10 16 0.00 0.00
9:53 pm 21:53 Clear 69 20.6 39 3.9 33 33 ESE 8 13 29.68 1005 10 16 0.00 0.00
10:53 pm 22:53 Clear 69 20.6 41 5 36 36 ESE 8 13 29.70 1006 10 16 0.00 0.00
11:53 pm 23:53 Clear 67 19.4 41 5 39 39 ESE 9 15 29.68 1005 10 16 0.00 0.00

Powered by AerisWeather